GEFSMA_con_prob3kmehi_198.txt.gz
EHI
0 0 0 0 0 0 0 0 0 0 1 0 0 0 0 0 1 1 1 2 3 1 0 0 0 0 1 1 1 0 0 0 0 0 0 0 0 0 0 0 0 0 0
0 0 0 0 0 0 0 0 0 0 1 0 0 0 0 0 1 1 1 2 3 2 1 1 1 1 1 2 1 0 0 0 0 0 0 0 0 0 0 0 0 0 0
0 0 0 0 0 0 1 0 0 0 0 0 0 0 0 0 1 1 0 1 2 2 2 3 3 2 3 3 3 2 1 1 1 1 0 0 0 0 0 0 0 0 0
0 0 1 1 0 0 0 0 0 0 0 0 0 0 0 0 0 0 0 1 2 2 2 4 3 2 2 2 3 3 2 2 2 2 1 1 0 0 0 0 0 0 0
0 0 1 1 0 0 0 0 0 0 0 0 0 0 0 0 0 1 1 1 2 2 2 3 2 1 1 0 1 3 3 3 3 3 3 2 1 1 0 0 0 0 0
1 1 1 1 0 1 1 1 1 0 0 0 0 0 0 0 1 2 2 2 2 1 1 1 1 0 0 0 1 2 3 3 3 4 4 3 3 2 1 0 0 0 0
2 2 2 2 1 1 1 1 1 1 1 2 1 0 0 1 2 2 2 2 1 1 0 0 1 2 1 1 0 1 2 3 3 3 3 3 2 2 1 0 0 0 0
3 3 3 3 3 2 1 1 1 2 2 3 2 1 0 1 1 1 1 1 1 1 2 1 2 3 3 2 1 1 1 2 3 3 1 1 1 2 1 1 1 0 0
6 5 5 4 4 3 2 2 3 2 2 3 3 2 1 1 2 1 1 1 1 2 2 2 1 2 4 5 4 1 1 1 2 1 0 1 2 2 2 2 1 0 0
10 9 6 5 5 4 2 2 3 3 2 2 3 4 4 4 5 3 2 0 0 1 1 1 1 2 5 7 6 2 0 0 0 0 1 1 2 2 1 1 1 0 0
12 9 7 5 5 4 3 3 4 5 4 4 4 4 6 8 8 6 3 1 0 0 1 1 1 2 5 7 5 1 0 0 0 0 1 1 1 1 0 0 0 0 0
10 8 6 6 6 6 6 6 6 6 4 3 3 4 7 9 9 8 5 2 1 1 2 2 1 1 3 4 3 1 0 0 0 0 1 1 0 0 0 0 0 0 0
6 7 7 8 8 7 7 8 7 6 3 2 2 4 7 8 9 9 7 5 2 2 3 2 1 0 1 2 3 1 0 0 0 0 0 0 0 0 0 0 0 0 0
4 7 9 10 10 9 8 9 8 6 4 2 2 3 6 8 9 9 8 6 4 3 2 2 2 1 2 3 3 1 1 0 0 0 0 0 0 0 0 0 0 0 0
6 8 9 9 10 11 11 11 9 7 6 5 4 4 5 7 8 7 5 5 5 3 2 3 3 3 3 3 2 2 2 1 0 0 0 0 0 0 0 0 0 0 0
11 11 9 9 10 12 13 13 11 8 7 7 6 5 4 5 6 4 3 3 4 3 4 5 5 3 2 1 1 1 2 1 0 0 0 0 0 0 0 0 0 0 0
14 13 10 10 12 14 15 15 13 10 9 8 6 4 4 4 4 3 3 3 3 3 4 6 5 3 1 1 1 2 1 0 0 0 0 0 0 0 0 0 0 0 0
14 12 11 12 13 15 16 16 15 12 10 8 6 5 5 4 3 4 4 4 3 3 3 4 4 3 1 0 1 2 1 0 0 0 0 0 0 0 0 0 0 0 0
15 13 12 14 14 14 15 16 16 14 12 10 9 9 7 4 4 4 4 4 3 3 3 3 3 2 1 0 1 1 1 0 0 0 0 0 0 0 0 0 0 0 0
18 17 16 15 12 11 12 14 15 16 14 12 11 10 7 4 4 4 4 4 3 3 3 3 3 2 1 1 2 2 1 0 0 0 0 0 0 0 0 0 0 0 0
23 22 20 15 10 9 10 12 14 15 15 12 10 8 6 4 2 3 3 3 4 3 3 3 2 1 1 1 3 3 1 0 0 0 0 0 0 0 0 0 0 0 0
27 26 22 16 11 9 8 8 9 12 13 10 7 6 5 3 1 1 1 2 3 3 2 3 3 2 2 2 2 2 1 1 1 1 1 1 1 1 0 0 0 0 0
26 25 23 19 15 11 7 4 4 7 9 8 6 5 5 4 2 2 1 1 1 1 1 2 3 3 2 2 1 1 0 0 1 1 1 1 1 1 0 0 0 0 0
25 24 23 21 18 13 6 2 1 4 6 7 6 4 4 5 4 3 2 1 0 0 0 1 2 2 1 1 0 0 0 0 0 0 0 0 0 0 0 0 0 0 0
27 25 21 19 16 11 6 2 1 3 6 7 6 4 4 5 4 2 2 1 0 0 0 0 1 1 0 0 0 0 0 0 0 0 0 0 0 0 0 0 0 0 0
29 25 19 16 13 10 6 2 1 4 7 7 6 4 4 4 2 1 1 0 0 0 0 0 0 0 0 0 0 0 0 0 0 0 0 0 0 0 0 0 0 0 0

GEFSMA_con_prob3kmehi_204.txt.gz
EHI
1 2 2 2 2 2 2 2 1 0 1 0 0 0 0 0 0 2 8 14 16 16 13 9 6 7 7 5 2 1 0 0 0 0 0 0 0 0 0 0 0 0 0
4 4 4 3 3 3 4 3 2 1 1 1 1 1 0 0 0 2 7 11 14 15 15 13 10 9 8 7 5 3 2 1 1 0 0 0 0 0 0 0 0 0 0
7 6 5 5 5 6 6 5 4 3 1 1 1 1 1 1 1 2 6 8 10 13 16 17 15 12 12 11 10 9 7 6 4 1 0 0 0 0 0 0 0 0 0
8 7 7 8 9 9 8 7 6 4 2 1 1 1 2 5 5 4 4 6 7 9 14 17 16 15 16 16 16 14 13 11 9 5 3 3 1 0 0 0 0 0 0
8 8 9 10 10 9 8 7 7 6 3 2 1 2 3 8 10 7 5 5 6 9 11 13 14 15 17 18 18 16 15 14 13 11 10 7 5 2 1 0 0 0 0
11 9 9 11 10 9 8 8 9 7 4 2 2 1 3 6 11 12 10 6 6 10 11 13 15 14 14 14 15 15 15 14 14 14 12 10 7 6 3 1 0 0 0
15 12 10 10 10 9 9 11 12 9 5 3 2 1 1 4 8 12 13 9 8 10 13 15 17 17 15 12 11 12 13 13 12 12 10 8 7 6 4 1 0 0 0
19 16 13 11 9 10 12 15 16 12 7 5 5 3 1 1 3 6 9 10 9 11 13 15 18 20 19 15 11 9 9 10 10 9 7 6 5 4 3 1 0 0 0
21 20 18 14 11 12 15 18 17 12 8 6 7 6 3 1 1 2 5 7 9 12 13 13 15 19 20 19 14 10 8 8 7 6 4 4 4 3 2 1 0 0 0
22 22 21 20 17 15 17 18 15 11 8 5 5 5 3 1 1 2 3 4 6 10 12 12 13 17 20 19 17 13 9 7 5 3 1 1 2 2 1 0 0 0 0
26 25 24 25 23 20 18 17 15 11 9 6 5 3 2 1 2 2 2 3 4 7 9 9 11 15 17 16 15 13 10 6 3 1 0 1 3 3 2 0 0 0 0
33 31 30 30 29 25 21 19 16 13 10 9 7 5 2 2 2 1 1 2 3 5 6 7 9 13 13 12 10 9 7 4 1 0 0 1 3 3 1 0 0 0 0
34 34 35 36 34 29 25 23 21 17 14 12 9 6 4 2 2 2 1 3 4 4 5 7 9 10 9 9 7 5 4 2 0 0 0 0 1 1 0 0 0 0 0
29 33 36 37 34 29 27 26 25 22 20 17 12 9 7 5 5 5 4 4 4 3 3 6 9 8 7 8 6 3 2 1 0 0 0 0 0 0 0 0 0 0 0
27 30 33 33 29 26 26 26 26 25 26 22 17 14 12 10 8 7 6 5 4 2 3 5 7 6 6 7 5 3 2 1 0 0 0 0 0 0 0 0 0 0 0
28 29 30 29 25 23 25 25 24 26 28 24 20 18 16 12 10 8 6 4 3 2 2 5 6 6 5 5 4 4 3 1 0 0 0 0 0 0 0 0 0 0 0
30 30 29 27 25 24 24 25 22 23 25 24 21 19 16 14 11 8 5 3 2 2 3 5 7 8 7 4 2 3 3 2 1 0 0 0 0 0 0 0 0 0 0
34 32 30 28 26 25 25 25 22 19 21 22 21 19 17 15 14 10 6 4 3 3 4 5 7 9 8 4 2 2 2 3 2 1 0 0 0 0 0 0 0 0 0
39 37 35 32 30 28 27 26 25 22 20 21 21 20 17 16 15 12 9 5 4 3 4 6 7 7 5 3 2 2 2 2 2 0 0 0 0 0 0 0 0 0 0
42 42 40 37 34 32 28 27 26 25 23 23 21 19 17 16 14 11 8 6 3 3 5 6 6 5 3 2 1 1 1 1 1 0 0 0 0 0 0 0 0 0 0
43 42 39 37 35 30 25 23 25 26 25 24 21 18 15 14 12 8 5 4 3 3 4 5 4 3 3 1 0 0 0 0 0 0 0 0 0 0 0 0 0 0 0
45 42 38 35 33 25 16 14 18 23 25 24 21 18 14 11 8 5 2 1 2 2 3 3 3 2 1 1 0 0 0 0 0 0 0 0 0 0 0 0 0 0 0
49 44 38 35 31 22 10 6 9 16 20 21 20 17 13 9 7 4 2 1 1 1 1 2 2 2 1 1 0 0 0 0 0 0 0 0 0 0 0 0 0 0 0
53 49 41 36 30 19 8 3 3 8 15 17 16 15 13 10 7 4 3 3 2 1 0 1 2 2 2 1 0 0 0 0 0 0 0 0 0 0 0 0 0 0 0
54 50 42 35 28 17 7 3 2 7 12 14 12 10 10 9 6 3 3 5 4 2 1 0 1 1 1 0 0 0 0 0 0 0 0 0 0 0 0 0 0 0 0
53 47 40 33 27 17 8 2 2 7 12 12 9 6 6 6 4 2 3 5 5 3 1 0 0 0 0 0 0 0 0 0 0 0 0 0 0 0 0 0 0 0 0

GEFSMA_con_prob3kmehi_210.txt.gz
EHI
0 0 0 0 0 0 0 0 0 0 0 0 0 0 0 0 0 0 1 5 13 19 21 17 11 7 5 4 3 3 3 2 1 0 0 0 0 0 0 0 0 0 0
0 0 0 0 0 0 0 0 0 0 0 0 0 0 0 0 0 0 0 4 12 18 21 20 16 11 8 6 5 4 3 3 1 0 0 0 0 0 0 0 0 0 0
1 0 0 0 0 0 0 0 0 0 0 0 0 0 0 0 0 0 0 2 6 11 17 21 20 15 12 10 8 6 5 4 2 0 0 0 0 0 0 0 0 0 0
3 1 0 0 0 0 0 0 0 0 0 0 0 0 0 0 0 0 0 0 1 3 9 16 19 18 15 14 13 11 9 8 6 3 1 0 0 0 0 0 0 0 0
3 1 0 0 0 0 0 0 0 0 0 0 0 0 0 0 0 0 0 0 0 0 2 7 13 15 17 18 16 15 13 11 10 7 4 1 1 1 0 0 0 0 0
2 1 0 0 0 0 0 0 0 0 0 0 0 0 0 0 0 0 0 0 0 0 0 2 4 7 13 17 17 16 14 12 10 9 6 3 2 1 0 0 0 0 0
3 2 2 1 0 0 0 0 0 0 0 0 0 0 0 0 0 0 0 0 0 0 0 0 0 1 5 10 12 12 12 11 9 8 6 4 2 1 0 0 1 1 0
7 5 4 2 1 1 0 0 0 0 0 0 0 0 0 0 0 0 0 0 0 0 0 0 0 0 1 3 5 7 9 9 8 7 6 5 3 1 0 0 1 1 1
11 9 5 3 2 1 0 0 0 0 0 0 0 0 0 0 0 0 0 0 0 0 0 0 1 1 1 2 2 3 6 7 5 5 6 5 4 2 1 0 1 1 0
11 10 7 4 3 1 0 0 0 0 0 0 0 0 0 0 0 0 0 0 0 0 0 0 1 1 1 1 1 1 2 3 3 4 5 5 4 3 1 0 0 0 0
10 10 9 6 3 1 0 0 0 0 0 0 0 0 0 0 0 0 0 0 0 0 0 0 1 1 0 0 0 0 0 1 1 2 3 4 4 3 1 0 0 0 0
9 11 10 7 4 2 1 0 0 0 0 0 0 0 0 0 0 0 0 0 0 0 0 0 0 0 0 0 0 0 0 0 0 1 2 2 3 3 2 0 0 0 0
9 10 9 7 4 2 2 1 1 1 0 0 0 0 0 0 0 0 0 0 0 0 0 0 0 0 0 0 0 0 0 0 0 0 0 1 2 2 1 0 0 0 0
9 7 7 6 4 3 4 4 4 3 1 0 0 0 0 0 0 0 0 0 0 0 0 0 0 0 0 0 0 0 0 0 0 0 0 0 0 0 0 0 0 1 1
7 7 6 5 4 4 5 6 5 4 2 1 1 1 1 0 1 1 1 1 1 0 0 0 0 0 0 0 0 0 0 0 0 0 0 0 0 0 0 0 0 0 0
5 5 6 6 5 5 6 7 6 5 4 4 4 4 3 2 2 2 2 2 2 1 1 1 0 0 0 0 0 0 0 0 0 0 0 0 0 0 0 0 0 0 0
5 5 5 5 5 6 7 8 8 8 8 7 7 6 4 3 3 3 3 3 3 3 2 2 1 0 0 0 0 0 0 0 0 0 0 0 0 0 0 0 0 0 0
9 9 8 6 5 6 8 9 10 11 11 10 8 6 4 3 3 3 3 3 3 3 3 2 1 0 0 0 0 0 0 0 0 0 0 0 0 0 0 0 0 0 0
12 12 11 8 6 5 7 10 12 13 13 12 9 5 4 3 3 3 3 3 3 3 3 2 1 0 0 0 0 0 0 0 0 0 0 0 0 0 0 0 0 0 0
12 13 13 12 9 7 8 11 14 14 13 11 8 5 4 3 3 3 3 3 3 3 3 1 0 0 0 0 0 0 0 0 0 0 0 0 0 0 0 0 0 0 0
11 12 14 14 12 11 11 12 14 15 12 9 7 5 4 3 2 2 2 3 3 3 2 1 0 0 0 0 0 0 0 0 0 0 0 0 0 0 0 0 0 0 0
11 12 13 13 12 11 10 10 11 12 11 8 6 5 5 3 1 1 1 1 2 3 2 1 0 0 0 0 0 0 0 0 0 0 0 0 0 0 0 0 0 0 0
15 14 12 12 10 8 6 5 5 7 8 8 7 7 7 5 2 0 0 0 1 2 1 0 0 0 0 0 0 0 0 0 0 0 0 0 0 0 0 0 0 0 0
20 18 15 13 10 6 2 1 2 4 5 6 6 7 7 5 2 0 0 0 0 0 0 0 0 0 0 0 0 0 0 0 0 0 0 0 0 0 0 0 0 0 0
24 22 18 16 13 6 1 0 1 2 2 2 2 3 4 3 1 0 0 0 0 0 0 0 0 0 0 0 0 0 0 0 0 0 0 0 0 0 0 0 0 0 0
24 22 20 18 15 8 2 0 1 2 1 0 0 1 1 1 0 0 0 0 0 0 0 0 0 0 0 0 0 0 0 0 0 0 0 0 0 0 0 0 0 0 0

GEFSMA_con_prob3kmehi_216.txt.gz
EHI
0 0 0 0 0 0 0 0 0 0 0 0 0 0 0 0 0 0 0 0 1 2 3 4 4 3 3 3 3 3 3 3 3 2 1 0 0 0 0 0 0 0 0
0 0 0 0 0 0 0 0 0 0 0 0 0 0 0 0 0 0 0 0 1 2 3 4 5 4 3 3 3 3 3 3 3 3 2 1 0 0 0 0 0 0 0
0 0 0 0 0 0 0 0 0 0 0 0 0 0 0 0 0 0 0 0 0 1 3 4 5 5 5 4 3 3 3 3 3 3 3 2 1 0 0 0 0 0 0
0 0 0 0 0 0 0 0 0 0 0 0 0 0 0 0 0 0 0 0 0 0 1 3 4 5 4 3 3 3 4 4 4 4 3 3 2 1 0 0 0 0 0
0 0 0 0 0 0 0 0 0 0 0 0 0 0 0 0 0 0 0 0 0 0 0 1 1 2 2 2 2 3 4 4 5 5 4 3 3 2 1 0 0 0 0
0 0 0 0 0 0 0 0 0 0 0 0 0 0 0 0 0 0 0 0 0 0 0 0 0 0 1 1 1 1 2 2 4 5 3 2 2 2 1 0 0 0 0
0 0 0 0 0 0 0 0 0 0 0 0 0 0 0 0 0 0 0 0 0 0 0 0 0 0 0 0 0 0 1 1 2 2 2 1 1 1 0 0 0 0 0
0 0 0 0 0 0 0 0 0 0 0 0 0 0 0 0 0 0 0 0 0 0 0 0 0 0 0 0 0 0 0 1 1 2 1 1 0 0 0 0 0 0 0
1 1 0 0 0 0 0 0 0 0 0 0 0 0 0 0 0 0 0 0 0 0 0 0 0 0 0 0 0 0 0 1 1 1 1 1 0 0 0 0 0 0 0
2 2 1 0 0 0 0 0 0 0 0 0 0 0 0 0 0 0 0 0 0 0 0 0 0 0 0 0 0 0 0 1 2 1 1 0 0 0 0 0 0 0 0
1 1 1 0 0 0 0 0 0 0 0 0 0 0 0 0 0 0 0 0 0 0 0 0 0 0 0 0 0 0 0 1 1 1 0 0 0 0 0 0 0 0 0
1 1 1 0 0 0 0 0 0 0 0 0 0 0 0 0 0 0 0 0 0 0 0 0 0 0 0 0 0 0 0 0 0 0 0 0 0 0 0 0 0 0 0
2 2 1 0 0 1 1 1 0 0 0 1 1 0 0 0 0 0 0 0 0 0 0 0 0 0 0 0 0 0 0 0 0 0 0 0 0 0 0 0 0 0 0
1 1 1 0 0 1 2 2 1 0 1 2 2 1 1 1 2 1 1 0 0 0 0 0 0 0 0 0 0 0 0 0 0 0 0 0 0 0 0 0 0 0 0
1 1 1 1 1 1 2 2 1 0 1 2 2 2 2 2 3 3 2 1 1 0 0 0 0 0 0 0 0 0 0 0 0 0 0 0 0 0 0 0 0 0 0
2 2 3 3 3 3 3 3 2 1 1 1 1 1 1 2 3 3 3 3 2 1 0 0 0 0 0 0 0 0 0 0 0 0 0 0 0 0 0 0 0 0 0
3 3 4 6 6 6 6 5 4 3 2 2 2 1 2 3 3 3 3 3 3 2 1 0 1 1 0 0 0 0 0 0 0 0 0 0 0 0 0 0 0 0 0
4 3 4 6 6 6 7 6 4 3 3 3 3 4 5 6 5 4 3 3 3 3 2 2 2 2 1 0 0 0 0 0 0 0 0 0 0 0 0 0 0 0 0
4 3 3 4 5 5 6 5 4 4 3 3 4 7 8 8 6 5 4 4 3 3 3 3 3 2 1 0 0 0 0 0 0 0 0 0 0 0 0 0 0 0 0
3 3 3 3 4 4 4 4 5 5 4 4 5 7 8 8 6 5 5 4 3 2 3 3 3 2 1 0 0 0 0 0 0 0 0 0 0 0 0 0 0 0 0
5 5 4 4 3 3 3 4 5 6 6 6 6 6 6 5 4 4 4 3 3 2 3 3 4 3 1 0 0 0 0 0 0 0 0 0 0 0 0 0 0 0 0
10 8 7 6 5 4 3 3 4 5 6 6 6 5 4 4 3 3 2 1 1 2 2 3 4 4 2 1 0 0 0 0 0 0 0 0 0 0 0 0 0 0 0
13 12 10 8 7 6 4 3 3 4 5 6 6 6 5 4 3 3 2 1 1 1 1 2 3 3 2 2 1 0 0 0 0 0 0 0 0 0 0 0 0 0 0
15 14 12 10 9 7 4 2 2 3 4 6 6 6 5 4 3 3 3 3 2 1 0 1 1 1 1 1 1 0 0 0 0 0 0 0 0 0 0 0 0 0 0
15 14 12 11 9 7 4 1 1 2 4 5 5 5 5 3 1 2 3 3 3 2 1 0 0 0 0 0 0 0 0 0 0 0 0 0 0 0 0 0 0 0 0
14 13 12 11 9 6 3 1 1 2 4 4 4 4 4 3 1 1 2 3 3 3 2 1 0 0 0 0 0 0 0 0 0 0 0 0 0 0 0 0 0 0 0

GEFSMA_con_prob3kmehi_222.txt.gz
EHI
0 0 0 0 0 0 0 0 0 0 0 0 0 0 0 0 0 0 0 1 1 1 0 0 0 0 1 2 2 3 3 3 3 2 1 0 0 0 0 0 0 0 0
0 0 0 0 0 0 0 0 0 0 0 0 0 0 0 0 0 0 0 0 0 0 0 0 0 0 1 2 2 2 3 3 3 3 1 1 1 0 0 0 0 0 0
0 1 1 1 0 0 0 0 0 0 0 0 0 0 0 0 0 0 0 0 0 1 1 1 0 2 4 4 3 2 3 3 3 3 3 2 2 1 0 0 0 0 0
1 2 2 1 0 0 0 0 0 0 0 0 0 0 0 0 0 0 0 0 1 2 3 2 1 3 5 6 5 3 3 3 2 2 2 2 2 1 0 0 0 0 0
1 2 2 1 0 0 1 0 0 0 0 0 0 0 0 0 0 0 0 0 2 3 4 3 2 3 3 4 4 3 3 4 3 1 1 1 1 1 1 0 0 0 0
2 2 2 2 2 2 1 1 0 0 0 1 0 0 0 0 0 0 0 1 2 3 4 4 3 1 1 2 2 2 2 3 3 2 1 2 1 1 1 0 0 0 0
3 4 4 4 4 4 4 2 1 1 1 1 0 0 0 0 0 0 0 0 1 1 1 2 2 1 0 1 1 1 1 1 1 2 3 3 4 3 1 0 0 0 0
3 4 5 5 5 6 6 5 4 3 2 1 1 1 0 0 1 0 0 0 0 0 0 0 1 1 0 0 1 1 2 1 1 1 1 2 3 3 2 1 0 0 0
3 4 4 4 4 6 7 7 6 5 4 3 3 3 1 0 0 0 0 0 0 0 0 0 0 1 1 1 2 2 2 3 2 1 1 2 2 1 1 1 1 0 0
5 5 4 5 5 5 7 7 6 5 5 4 4 4 2 1 1 1 0 0 0 0 0 0 0 0 1 3 4 3 2 2 2 2 3 4 2 1 1 0 0 0 0
8 7 7 8 8 7 7 7 7 5 4 3 4 4 4 4 3 2 1 0 0 0 0 0 0 0 1 3 3 2 1 1 1 2 3 2 2 2 2 1 0 0 0
11 11 13 14 12 10 9 9 9 7 4 4 4 4 5 5 3 3 2 1 0 0 0 0 0 0 0 1 1 0 0 0 1 1 1 0 1 2 2 1 0 0 0
12 14 16 17 16 14 12 13 13 10 6 5 4 5 6 5 3 3 3 1 0 0 0 0 0 0 0 0 0 0 0 0 0 0 0 0 0 1 1 0 0 0 0
9 11 13 13 13 14 15 18 18 13 10 7 5 6 7 6 5 4 4 3 1 0 0 0 0 1 1 2 1 1 1 0 0 0 0 0 0 0 0 0 0 0 0
7 7 8 8 10 13 18 21 20 17 12 9 7 8 10 11 9 7 6 7 4 2 1 0 0 1 3 4 3 3 3 1 0 0 0 0 0 0 0 0 0 0 0
7 7 8 9 11 14 17 20 19 17 14 11 9 10 12 13 12 10 10 10 8 5 2 0 0 2 4 4 4 5 4 2 1 0 0 0 0 0 0 0 0 0 0
9 10 12 13 13 14 15 16 16 16 15 14 12 12 12 13 12 14 14 13 12 9 5 2 1 4 6 5 4 5 4 3 3 1 0 0 0 0 0 0 0 0 0
14 14 15 14 13 14 15 17 17 17 19 18 15 14 13 12 13 15 17 15 14 13 9 4 3 7 9 7 6 5 4 4 3 1 0 0 0 0 0 0 0 0 0
16 15 13 12 12 12 14 17 19 21 23 23 21 18 16 14 14 16 17 17 15 14 11 7 5 8 10 10 9 7 6 6 5 2 1 0 0 0 0 0 0 0 0
16 14 11 10 10 11 13 15 19 22 26 27 25 22 19 16 15 16 17 18 16 14 12 9 6 7 10 11 11 10 8 8 7 4 2 0 0 0 0 0 0 0 0
17 17 14 13 12 13 14 15 17 20 25 27 25 23 21 17 14 13 13 14 14 14 13 10 8 9 10 11 11 12 10 8 7 5 3 1 0 0 0 0 0 0 0
20 20 19 18 16 14 13 13 15 18 21 22 20 19 18 16 13 10 8 6 8 10 12 12 12 10 9 10 11 11 10 8 5 4 3 1 1 0 0 0 0 0 0
20 22 23 22 19 14 9 7 9 14 17 17 16 16 15 15 14 12 8 5 4 5 8 11 12 11 10 10 11 11 9 7 5 3 1 0 0 0 0 0 0 0 0
20 22 24 23 21 15 8 4 6 12 16 15 14 14 14 13 14 14 12 9 8 6 5 6 8 9 9 9 10 9 8 7 5 3 1 0 0 0 0 0 0 0 0
23 23 23 22 20 15 9 5 6 12 16 16 14 12 10 10 10 11 12 14 13 11 6 2 3 4 5 5 6 6 5 4 3 2 1 0 0 0 0 0 0 0 0
27 25 23 20 18 15 9 5 6 12 16 17 15 11 6 7 8 8 11 15 16 14 8 2 0 1 1 1 2 4 3 2 1 1 0 0 0 0 0 0 0 0 0

GEFSMA_con_prob3kmehi_228.txt.gz
EHI
1 0 1 4 4 2 2 1 1 3 4 4 3 3 4 3 2 1 3 8 10 9 8 5 1 1 2 3 3 1 0 0 1 2 2 3 3 3 2 1 0 0 0
2 1 2 5 4 2 1 0 1 2 3 3 2 2 3 2 2 1 2 6 10 10 9 6 3 2 2 4 4 2 1 0 0 1 1 2 2 2 2 1 0 0 0
5 4 4 6 6 4 1 0 0 1 1 1 1 1 1 1 1 1 2 4 7 9 10 10 8 6 5 5 5 4 2 1 0 0 0 1 1 1 1 1 0 0 0
6 6 6 7 8 7 4 2 1 1 1 2 3 2 2 3 2 2 2 3 4 7 11 13 12 11 10 8 7 6 4 3 2 2 1 1 0 0 0 0 0 0 0
8 7 8 9 10 10 8 6 5 4 4 5 5 4 4 5 5 3 2 3 3 5 9 11 12 12 13 12 11 9 7 6 6 5 3 2 1 0 0 0 0 0 0
14 12 11 12 12 11 10 8 8 7 7 6 4 3 4 7 6 4 4 3 2 4 6 9 10 11 13 14 13 11 10 9 8 7 6 4 3 2 0 0 0 0 0
20 17 15 15 13 11 10 9 9 9 7 5 3 2 3 6 6 5 6 4 2 2 3 6 9 11 11 11 11 11 10 10 10 9 7 7 6 4 2 0 0 0 0
22 20 17 15 14 13 12 12 12 10 6 4 3 3 3 4 4 5 6 5 2 1 2 5 10 12 11 9 8 9 9 10 11 10 9 8 8 6 4 1 0 0 0
24 22 19 16 17 17 16 16 15 11 6 4 4 4 3 2 3 4 4 3 2 2 3 4 9 14 13 10 10 8 7 8 11 12 11 10 9 7 4 2 1 1 0
27 25 20 18 19 20 19 17 15 11 6 5 5 4 3 2 3 3 2 3 3 4 4 4 7 12 14 12 12 11 9 8 10 13 13 12 9 6 5 4 4 2 1
26 25 24 22 22 22 19 17 16 13 9 7 6 5 4 2 2 3 2 3 4 4 4 4 5 9 11 11 12 12 11 9 9 10 10 9 7 6 5 5 4 3 3
26 26 27 28 27 25 22 19 18 17 14 11 9 7 5 3 2 3 3 3 3 5 6 7 7 7 8 9 10 11 10 8 6 5 4 4 4 4 4 4 3 2 2
27 28 31 33 32 29 26 23 21 18 17 15 14 11 8 5 3 2 4 4 3 5 9 13 11 8 6 8 10 9 8 6 3 1 1 1 1 3 3 2 1 1 1
24 28 33 35 35 30 27 25 23 21 21 20 17 15 11 7 4 3 4 5 4 4 8 14 14 12 10 9 9 8 7 5 2 0 0 0 1 2 2 1 0 0 0
21 26 32 35 34 30 26 25 24 24 25 24 20 18 16 11 7 6 6 8 7 5 6 9 12 15 15 11 7 9 11 6 1 0 0 0 0 1 1 0 0 0 0
24 25 29 32 33 30 27 27 25 24 26 26 24 22 19 15 13 12 11 11 11 9 6 6 8 14 18 13 9 12 13 8 2 0 0 0 0 0 0 0 0 0 0
32 30 30 31 31 28 28 28 26 23 24 25 24 21 19 17 17 17 17 16 15 12 9 6 7 13 19 17 13 14 14 10 4 1 0 0 0 0 0 0 0 0 0
40 37 34 30 25 23 25 27 25 23 24 24 22 20 19 19 19 19 19 20 17 14 11 8 7 12 17 17 15 14 12 10 7 2 0 0 0 0 0 0 0 0 0
43 39 33 25 19 16 18 21 20 20 22 22 22 22 21 19 18 18 18 19 19 16 14 11 9 10 13 14 13 12 10 9 8 4 1 0 0 0 0 0 0 0 0
42 37 29 22 16 13 14 16 17 18 20 21 22 23 22 19 18 17 16 17 17 17 15 14 12 11 12 13 12 10 9 8 7 5 3 1 0 0 0 0 0 0 0
38 34 29 24 19 14 12 15 18 19 20 21 22 24 22 19 16 14 13 14 14 15 15 14 13 12 14 15 13 11 9 7 5 4 3 2 1 0 0 0 0 0 0
35 33 30 28 23 15 11 13 17 20 21 22 22 22 21 18 14 11 9 8 9 11 12 12 12 12 15 17 15 12 10 7 5 4 3 2 1 0 0 0 0 0 0
34 33 31 29 25 17 10 9 12 18 22 22 21 21 20 17 14 13 10 8 7 7 8 9 10 11 14 16 15 13 11 9 6 4 2 1 0 0 0 0 0 0 0
35 34 31 28 25 17 10 6 8 16 22 21 20 20 22 19 15 14 14 12 10 8 6 6 7 8 10 12 12 12 11 8 5 3 1 0 0 0 0 0 0 0 0
34 32 29 26 23 18 12 7 8 15 21 22 21 20 22 20 14 11 12 14 13 10 6 4 4 4 4 5 7 10 9 6 3 2 1 0 0 0 0 0 0 0 0
33 30 26 24 23 20 14 8 9 16 22 23 22 21 21 19 14 9 10 13 13 11 8 4 2 1 1 1 3 8 9 5 2 2 2 1 0 0 0 0 0 0 0

GEFSMA_con_prob3kmehi_234.txt.gz
EHI
0 0 0 0 0 0 0 0 0 0 0 0 0 0 0 0 0 0 1 3 5 5 4 5 5 3 2 1 1 0 0 1 1 1 0 0 0 0 0 0 0 0 0
0 0 0 0 0 0 0 0 0 0 0 0 0 0 0 0 0 0 0 2 4 6 6 6 5 4 3 3 2 1 1 0 0 0 0 0 0 0 0 0 0 0 0
0 0 0 0 0 0 0 0 0 0 0 0 0 0 0 0 0 0 0 1 2 5 7 8 7 6 5 4 4 3 2 1 0 0 0 0 0 0 0 0 0 0 0
0 0 0 0 0 0 0 0 0 0 0 0 0 0 0 0 0 0 0 1 1 2 4 7 9 9 8 7 6 5 5 4 2 1 0 0 0 0 0 0 0 0 0
0 0 0 0 0 0 0 0 0 0 0 0 0 0 0 0 0 0 0 0 0 0 1 4 7 10 10 10 9 8 8 7 4 3 2 0 0 0 0 0 0 0 0
1 1 1 1 1 1 0 0 0 0 0 0 0 0 0 0 0 0 0 0 0 0 0 1 4 7 10 10 11 10 10 9 8 6 4 2 1 0 0 0 0 0 0
2 2 3 5 4 2 1 0 0 0 0 0 0 0 0 0 0 0 0 0 0 0 0 0 1 3 5 7 9 10 12 12 11 9 7 5 4 2 0 0 0 0 0
4 4 5 7 6 4 2 1 1 1 1 1 0 0 0 0 0 0 0 0 0 0 0 0 0 1 2 3 6 8 11 12 12 10 9 7 5 3 1 0 0 0 0
7 7 8 7 5 5 5 4 3 3 2 2 1 0 0 0 0 0 0 0 0 0 0 0 0 0 0 1 3 5 7 9 10 9 9 7 5 3 1 0 0 0 0
11 11 10 7 4 4 5 6 5 4 3 3 2 1 0 0 0 0 0 0 0 0 0 0 0 0 0 1 2 3 4 5 6 6 6 6 4 2 1 0 0 0 1
12 12 10 7 5 4 5 6 6 4 3 2 2 1 0 0 0 0 0 0 0 0 0 0 0 0 0 0 1 1 2 2 2 2 3 3 3 3 1 1 0 1 2
9 10 10 8 6 6 6 6 6 4 2 1 1 0 0 0 0 0 0 0 0 0 0 0 0 0 0 0 0 0 0 0 0 0 1 1 2 3 3 3 2 2 3
7 8 9 9 8 7 6 6 5 4 1 0 0 0 0 0 0 0 0 0 0 0 0 0 0 0 0 0 0 0 0 0 0 0 0 0 1 2 4 4 4 3 3
7 8 9 10 10 8 6 5 4 3 2 1 0 0 0 0 0 0 0 0 0 0 0 0 0 0 0 0 0 0 0 0 0 0 0 0 0 1 2 3 3 2 1
7 8 10 11 11 9 6 3 1 1 2 1 0 0 0 0 0 0 0 1 1 1 0 0 0 0 0 0 0 0 0 0 0 0 0 0 0 0 0 1 1 0 0
9 10 11 12 11 10 6 2 0 0 1 1 0 0 0 0 0 0 0 1 2 2 1 1 1 0 0 0 0 0 0 0 0 0 0 0 0 0 0 0 0 0 0
12 12 12 12 11 9 5 1 0 0 0 0 0 0 0 0 0 1 1 2 3 3 3 2 2 1 1 0 0 0 0 0 0 0 0 0 0 0 0 0 0 0 0
12 12 11 10 9 7 4 1 0 0 0 0 0 0 1 0 0 1 2 3 3 3 3 3 3 3 2 1 1 1 1 1 1 1 0 0 0 0 0 0 0 0 0
11 11 10 9 7 6 3 1 1 0 0 0 0 1 1 1 1 2 3 3 3 3 3 3 3 3 3 3 2 2 2 2 2 2 1 1 0 0 0 0 0 0 0
11 11 10 9 7 5 4 3 1 0 0 0 0 1 2 3 3 3 4 4 3 3 3 3 3 3 3 3 3 3 3 3 3 3 3 2 1 0 0 0 0 0 0
13 13 12 9 7 6 4 3 1 0 0 0 0 1 2 3 4 5 6 5 4 4 3 3 3 3 3 3 3 3 3 3 3 3 3 2 1 0 0 0 0 0 0
15 15 13 11 8 6 3 1 0 1 1 1 1 1 1 2 3 5 6 5 4 4 4 4 3 3 3 3 3 3 3 3 3 2 1 1 0 0 0 0 0 0 0
16 16 14 13 10 6 3 1 0 1 2 2 2 1 1 2 3 4 5 4 3 3 4 4 4 3 3 2 2 2 2 2 2 1 0 0 0 0 0 0 0 0 0
16 16 14 13 10 7 3 1 0 1 2 3 3 2 1 3 5 4 3 4 3 3 3 3 3 2 1 1 1 1 1 1 1 0 0 0 0 0 0 0 0 0 0
17 16 14 11 9 6 4 3 1 0 1 2 2 2 1 3 4 3 2 4 4 3 2 1 1 1 0 0 0 0 0 0 0 0 0 0 0 0 0 0 0 0 0
18 17 14 10 8 6 6 4 1 0 0 1 2 1 1 2 2 1 1 4 4 3 2 2 1 0 0 0 0 0 0 0 0 0 0 0 0 0 0 0 0 0 0

GEFSMA_con_prob3kmehi_240.txt.gz
EHI
0 0 0 0 0 0 0 0 0 0 0 0 0 0 0 0 0 0 0 0 1 3 3 3 2 1 1 0 0 0 0 0 0 0 0 0 0 0 0 0 0 0 0
0 0 0 0 0 0 0 0 0 0 0 0 0 0 0 0 0 0 0 0 1 3 5 5 3 3 2 1 1 0 0 0 0 0 0 0 0 0 0 0 0 0 0
0 0 0 0 0 0 0 0 0 0 0 0 0 0 0 0 0 0 0 0 0 2 4 5 5 5 4 3 3 2 2 2 1 0 0 0 0 0 0 0 0 0 0
0 0 0 0 0 0 0 0 0 0 0 0 0 0 0 0 0 0 0 0 0 0 1 2 5 6 5 4 4 5 6 5 4 2 0 0 0 0 0 0 0 0 0
0 0 0 0 0 0 0 0 0 0 0 0 0 0 0 0 0 0 0 0 0 0 0 0 2 4 4 4 5 6 8 8 6 4 2 1 0 0 0 0 0 0 0
0 0 0 0 0 0 0 0 0 0 0 0 0 0 0 0 0 0 0 0 0 0 0 0 0 1 3 3 4 5 7 8 8 7 6 5 3 1 0 0 0 0 0
0 0 0 0 0 0 0 0 0 0 0 0 0 0 0 0 0 0 0 0 0 0 0 0 0 1 2 2 2 3 4 6 8 9 10 9 8 5 3 1 1 1 0
0 0 0 0 0 0 0 0 0 0 0 0 0 0 0 0 0 0 0 0 0 0 0 0 0 0 0 0 0 1 1 2 5 8 10 10 10 8 5 3 2 2 1
0 0 0 0 0 1 1 1 1 1 1 1 0 0 0 0 0 0 0 0 0 0 0 0 0 0 0 0 0 0 0 0 2 3 5 6 7 7 5 4 3 3 3
0 0 0 1 1 3 3 3 2 2 2 2 1 1 2 1 1 0 0 0 0 0 0 0 0 0 0 0 0 0 0 0 0 0 1 2 3 4 5 5 4 3 3
1 1 1 2 3 5 5 4 4 4 4 3 3 3 3 2 1 0 0 0 0 0 0 0 0 0 0 0 0 0 0 0 0 0 0 1 2 3 4 5 4 3 3
2 2 3 3 4 6 6 5 5 5 5 4 3 3 2 1 1 0 0 0 0 0 0 0 0 0 0 0 0 0 0 0 0 0 0 0 1 1 1 3 3 2 3
3 3 3 3 4 5 6 6 6 6 6 5 3 1 1 0 0 0 0 0 0 0 0 0 0 0 0 0 0 0 0 0 0 0 0 0 0 0 0 1 1 1 3
3 3 3 3 3 4 4 5 6 6 6 5 2 0 0 0 0 0 0 0 1 0 0 0 0 0 0 0 0 0 0 0 0 0 0 0 0 0 0 0 0 0 1
3 3 3 3 3 3 3 4 5 5 4 3 1 0 0 0 0 0 0 0 0 0 0 0 0 0 0 0 0 0 0 0 0 0 0 0 0 0 0 0 0 0 0
5 5 5 5 5 4 4 4 3 2 1 1 0 0 0 0 0 0 0 0 0 0 1 1 1 0 0 0 0 0 0 0 0 0 0 0 0 0 0 0 0 0 0
8 8 8 8 7 6 5 4 3 1 0 0 0 0 0 0 1 1 1 0 0 0 1 1 1 0 0 0 0 0 0 0 0 0 0 0 0 0 0 0 0 0 0
8 9 9 9 8 6 5 4 3 2 1 0 0 0 0 0 1 2 1 0 0 1 2 1 0 0 0 0 0 0 0 0 0 0 0 0 0 0 0 0 0 0 0
6 7 7 7 6 6 6 6 5 3 1 0 0 0 0 0 1 1 0 0 1 1 2 1 1 0 0 0 0 0 0 0 0 0 0 0 0 0 0 0 0 0 0
5 5 5 5 5 5 7 7 6 4 1 0 0 0 0 0 0 0 1 1 2 2 2 1 1 1 0 0 0 0 0 0 0 0 0 0 0 0 0 0 0 0 0
6 6 6 5 5 5 5 6 6 5 2 0 0 0 0 0 0 0 1 2 2 2 2 2 2 2 2 1 1 1 0 0 0 0 1 0 0 0 0 0 0 0 0
6 7 7 7 6 5 3 3 4 4 1 0 0 0 0 0 0 0 1 1 1 1 2 4 5 4 4 5 4 2 0 0 0 0 0 0 0 0 0 0 0 0 0
7 8 8 7 6 5 3 1 2 3 1 1 1 1 1 0 0 1 1 0 0 0 1 3 5 6 6 6 4 1 0 0 0 0 0 0 0 0 0 0 0 0 0
9 9 9 7 6 6 3 1 1 2 2 2 2 3 2 1 0 1 2 1 1 1 0 1 3 4 4 4 2 0 0 0 0 0 0 0 0 0 0 0 0 0 0
12 11 11 9 9 8 4 1 1 3 4 3 4 4 2 1 0 1 2 3 2 2 1 0 1 1 1 1 0 0 0 0 1 1 0 0 0 0 0 0 0 0 0
12 13 12 11 11 10 5 1 1 4 5 4 5 4 2 0 0 1 2 3 3 2 1 0 0 0 0 0 0 0 0 1 2 2 1 0 0 0 0 0 0 0 0

GEFSMA_con_prob3kmehi_246.txt.gz
EHI
0 0 0 0 0 0 0 0 0 0 0 0 0 0 0 0 0 1 2 3 2 1 0 0 0 0 0 0 1 1 1 0 0 0 0 0 0 0 0 0 0 0 0
0 0 0 0 0 0 0 0 0 0 0 0 0 0 0 0 0 1 1 2 1 1 1 0 0 0 0 0 0 0 0 0 0 0 0 0 0 0 0 0 0 0 0
0 0 0 0 0 0 0 0 0 0 0 0 0 0 0 0 1 1 1 1 1 1 1 1 1 1 0 0 0 1 1 2 1 1 0 0 0 0 0 0 0 0 0
1 1 0 0 0 0 0 0 0 0 0 0 0 0 0 0 0 1 1 1 1 1 1 3 4 2 1 0 1 2 4 5 4 3 2 1 0 0 0 0 0 0 0
3 2 1 1 0 0 0 0 0 0 0 0 0 0 0 0 0 0 1 2 2 2 2 5 5 3 1 1 1 3 5 6 6 6 5 4 3 1 0 0 0 0 0
5 4 3 2 1 0 0 0 0 1 1 1 1 1 0 0 0 0 1 1 2 2 2 4 4 3 2 2 1 1 3 5 6 8 8 8 7 5 3 1 0 0 0
6 5 4 4 3 2 2 2 2 3 3 3 3 2 1 0 0 0 0 0 1 1 1 2 3 3 3 2 1 1 1 2 5 7 8 8 8 8 7 4 2 1 1
6 5 6 6 6 6 5 6 6 5 5 5 5 3 2 1 1 0 0 0 0 0 0 1 3 4 4 2 1 1 0 1 2 3 4 4 5 7 7 6 3 2 2
6 6 7 9 9 9 7 7 8 7 7 7 6 4 2 2 2 1 0 0 0 0 0 1 2 3 3 2 2 1 0 0 1 1 1 1 2 3 3 3 2 1 2
7 8 9 12 12 10 7 6 6 8 8 8 7 5 4 4 5 3 1 1 0 0 0 0 1 1 1 1 1 0 0 0 0 0 0 0 0 1 1 0 0 0 1
10 10 11 14 15 12 10 8 7 8 8 8 8 8 7 7 7 5 3 2 1 0 0 0 1 1 1 1 1 0 0 0 0 0 0 0 0 0 0 0 0 1 2
16 13 14 16 17 15 14 13 12 9 8 9 10 10 9 8 7 6 4 2 1 1 0 1 2 2 3 3 2 1 0 0 0 0 0 0 0 0 0 0 1 3 4
18 16 16 18 18 15 14 15 15 11 10 10 10 9 9 8 8 8 6 3 2 1 0 1 1 1 2 3 3 1 0 0 0 0 0 0 0 0 0 0 1 3 4
17 16 17 17 17 13 11 13 15 14 13 11 9 8 8 7 8 9 8 5 3 1 0 0 0 0 1 2 2 2 2 2 1 0 0 0 0 0 0 0 1 2 3
17 17 16 14 13 11 11 12 14 15 15 14 12 10 9 8 8 10 10 8 6 3 0 0 0 0 1 2 3 4 5 3 1 0 0 0 0 0 0 0 0 1 1
22 23 21 17 14 13 12 13 14 16 17 17 17 16 14 12 10 10 10 9 9 6 2 1 2 3 4 4 4 5 5 5 3 1 0 0 0 0 0 0 0 0 0
23 26 26 22 18 15 13 14 15 17 18 19 19 19 18 16 13 11 10 10 11 10 5 3 5 7 8 7 5 4 4 4 4 2 1 0 0 0 0 0 0 0 0
20 23 24 23 20 17 15 15 15 15 17 18 18 18 18 16 14 14 13 12 11 11 8 7 8 11 11 10 8 6 5 5 5 3 1 0 0 0 0 0 0 0 0
20 21 21 21 20 18 16 13 13 14 14 14 14 16 16 15 16 17 16 14 12 12 11 10 10 12 13 12 11 9 8 8 7 4 1 0 0 0 0 0 0 0 0
23 23 23 22 22 20 15 12 12 13 13 12 13 15 15 16 17 17 14 13 13 13 13 11 10 12 14 15 14 12 11 11 10 7 4 2 1 0 0 0 0 0 0
25 24 24 24 24 20 13 10 11 12 12 13 14 14 14 14 14 12 8 8 10 12 12 10 9 11 15 17 16 13 12 12 11 11 8 4 2 1 2 2 1 0 0
28 27 26 26 26 20 11 7 8 10 12 14 14 13 11 10 9 6 3 2 4 7 9 9 10 11 14 16 16 14 13 12 12 12 10 7 4 3 4 4 2 0 0
30 29 28 27 27 21 10 3 5 8 12 13 13 11 9 7 6 5 2 1 2 3 5 8 10 11 13 15 15 15 14 14 14 14 11 9 7 5 5 4 2 0 0
29 29 27 27 28 22 11 3 3 7 11 11 11 11 9 7 6 5 4 4 5 4 4 5 7 8 10 12 13 14 15 14 14 14 12 10 9 8 7 4 2 0 0
29 29 27 27 28 22 11 4 4 9 12 11 10 10 8 6 4 3 5 7 7 6 4 3 3 3 4 6 9 11 12 12 13 13 12 11 10 9 9 6 3 1 0
30 29 28 29 28 21 11 4 4 10 13 12 12 11 7 5 3 2 5 8 8 7 5 3 2 1 0 1 4 8 9 11 13 13 12 12 10 10 9 7 4 1 0

GEFSMA_con_prob3kmehi_252.txt.gz
EHI
3 3 3 3 3 3 5 4 2 0 0 0 0 0 0 1 3 6 12 19 22 20 14 9 8 8 8 5 2 0 0 0 0 0 0 0 0 0 0 0 0 0 0
3 3 3 2 2 3 4 4 2 1 1 1 1 1 1 1 3 5 9 15 22 23 19 14 12 12 11 9 5 3 1 0 0 0 0 0 1 1 0 0 0 0 0
5 5 3 2 2 3 4 4 3 3 3 4 5 4 3 3 4 4 5 10 16 21 22 20 18 16 15 14 11 8 6 4 3 2 1 1 1 1 0 0 0 0 1
8 7 3 2 4 5 5 5 5 6 6 7 7 6 6 7 6 5 5 7 10 14 18 22 21 19 17 16 15 14 13 12 9 7 4 2 1 1 0 0 0 1 2
11 9 6 5 6 7 5 4 5 7 7 7 6 6 8 10 10 8 7 7 9 11 13 18 20 19 19 19 18 18 18 18 16 12 8 5 4 3 2 1 1 2 3
13 11 8 6 6 6 4 3 4 7 9 7 5 5 8 11 13 12 9 9 10 10 10 14 19 19 19 21 22 20 18 17 16 14 11 9 8 8 6 4 3 3 3
14 12 10 9 7 6 5 5 6 8 9 8 5 5 6 9 11 12 11 9 8 8 8 12 19 21 20 21 21 20 17 15 13 12 12 11 11 9 7 6 6 4 4
13 12 13 13 11 10 9 10 10 9 8 6 5 5 6 7 8 9 10 8 6 7 6 10 18 23 24 22 19 18 17 15 12 10 9 10 10 9 7 7 7 5 4
13 14 17 17 16 14 13 13 13 11 7 6 6 7 7 8 7 7 7 7 7 8 6 7 16 24 27 25 21 18 18 18 16 12 10 10 9 8 7 7 6 5 4
17 19 20 20 18 18 16 15 13 11 8 8 8 8 8 8 8 7 7 7 9 8 6 6 12 21 26 27 25 21 18 17 15 12 11 11 8 5 4 4 4 4 3
23 24 24 22 20 20 19 17 15 13 11 9 8 7 6 7 7 7 6 7 8 8 7 7 10 16 21 25 26 22 17 13 9 8 8 9 7 3 1 1 2 2 2
27 27 27 24 21 20 20 20 19 17 14 11 8 6 6 7 7 5 5 5 7 8 9 9 11 13 17 22 24 21 16 10 5 3 3 4 4 2 0 0 1 1 1
28 29 28 25 21 20 20 21 22 21 18 14 9 7 7 7 7 5 4 4 5 7 9 10 10 11 15 18 20 17 13 7 3 1 1 1 1 0 0 0 0 0 0
28 32 32 28 24 23 23 23 23 23 21 16 10 8 8 8 8 7 5 3 3 5 8 9 8 10 13 15 13 13 11 6 1 0 0 0 0 0 0 0 0 0 0
29 34 37 33 28 26 26 26 25 25 25 20 14 12 11 9 8 9 8 6 5 5 7 8 7 8 11 10 9 11 12 7 2 1 0 0 0 0 0 0 0 0 0
31 34 38 37 30 26 27 26 24 26 27 22 17 15 13 10 9 11 11 9 7 7 7 8 7 7 8 8 8 11 13 9 4 2 1 0 0 0 0 0 0 0 0
34 35 37 36 29 24 24 23 21 23 24 20 16 14 13 11 11 13 13 11 9 8 8 8 8 8 10 10 10 10 11 9 7 3 1 0 0 0 0 0 0 0 0
37 36 36 32 25 21 21 21 20 20 20 17 14 14 13 13 13 13 13 12 10 8 7 6 6 8 12 15 15 12 8 7 7 3 1 0 0 0 0 0 0 0 0
39 37 33 29 24 22 22 21 20 20 19 18 17 17 16 16 17 15 12 12 10 7 6 4 4 6 11 15 18 15 9 7 6 3 1 0 0 0 0 0 0 0 0
38 36 31 27 24 23 23 24 23 22 20 19 20 20 19 18 17 14 12 11 10 7 5 3 2 4 7 12 17 15 11 9 7 4 2 1 1 1 0 0 0 0 0
37 36 32 27 23 20 20 23 25 24 23 22 21 21 18 15 12 10 9 9 8 7 5 4 4 5 6 9 12 12 10 8 8 6 5 4 3 3 1 1 0 0 0
38 38 35 30 25 19 14 16 22 25 26 26 24 20 15 10 7 6 5 4 5 5 4 4 5 7 8 8 8 8 7 7 6 7 8 8 6 5 4 3 1 0 0
38 36 34 32 28 20 11 9 14 22 26 27 25 21 15 9 7 6 4 3 2 3 2 3 5 7 9 9 9 8 7 6 6 7 8 8 6 6 6 4 1 0 0
37 34 30 29 27 21 12 6 8 17 25 26 24 20 15 11 7 6 5 4 4 3 2 1 3 6 8 9 10 9 7 7 7 8 8 7 6 5 4 3 1 0 0
37 33 29 27 25 20 11 4 5 15 23 24 20 16 13 11 6 3 3 4 5 5 3 2 2 4 5 6 7 8 8 7 7 8 9 9 7 5 4 3 2 1 0
38 34 30 29 26 20 10 3 4 14 22 21 17 12 10 9 6 1 1 4 6 6 4 3 3 2 3 3 4 6 7 7 7 7 8 9 8 5 4 4 2 1 0